Probability
2 4 6 6 6 5 3 1 0 0 0 0 0 0 0 0 0 1 1 1 0 0 0 0 0 0 0 0 1 1 1 0 0 0 0 0 0 0 0 0 1 0 0
2 5 7 7 6 5 4 2 1 0 0 0 0 0 0 0 0 0 0 0 0 0 0 0 0 0 0 1 1 2 2 1 0 0 0 0 0 0 0 0 1 0 0
4 6 8 8 7 6 5 4 2 1 0 0 0 0 0 0 0 0 0 0 0 0 0 0 0 0 1 2 2 3 2 1 0 0 0 0 0 0 0 0 0 0 1
4 6 8 8 7 6 6 4 3 1 0 0 0 0 0 0 0 0 0 0 0 0 0 0 0 1 2 3 3 2 2 1 0 0 0 0 0 0 0 0 0 0 1
3 4 8 9 7 6 6 4 3 2 1 0 0 0 0 0 0 0 0 1 0 0 0 0 0 1 2 2 1 1 1 0 0 0 0 0 0 0 0 0 0 0 1
1 3 7 8 7 7 6 5 4 3 2 2 1 0 0 0 0 0 0 0 0 0 0 0 0 1 1 1 0 0 0 0 0 0 0 0 0 0 0 0 0 0 0
2 3 6 7 7 7 6 6 5 3 3 3 2 1 1 1 0 0 0 0 0 0 0 1 1 1 1 0 0 0 0 0 0 0 0 0 0 0 0 0 0 0 0
4 5 5 6 7 6 6 5 4 3 3 3 3 3 2 1 0 0 0 0 0 0 0 0 1 1 1 0 0 0 0 0 0 0 0 0 0 0 0 0 0 0 0
6 6 5 6 5 4 4 4 3 3 3 3 3 3 2 1 0 0 0 0 0 0 0 0 0 0 0 0 0 0 0 0 0 0 0 0 0 0 0 0 0 0 0
6 5 5 5 4 3 3 3 3 3 3 3 3 2 1 0 0 0 0 0 0 0 0 0 0 0 0 0 0 0 0 0 0 0 0 0 0 0 0 0 0 0 0
3 3 2 2 2 1 2 3 3 3 3 3 2 1 0 0 0 0 0 0 0 0 0 0 0 0 0 0 0 0 0 0 0 0 0 0 0 0 0 0 0 0 0
1 1 0 1 2 1 1 3 3 3 3 3 2 1 0 0 0 0 0 0 0 0 0 0 0 0 0 0 0 0 0 0 0 0 0 0 0 0 0 0 0 0 0
0 0 0 1 2 1 1 2 3 3 3 3 3 2 1 0 0 0 0 0 0 0 0 0 0 0 0 0 0 0 0 0 0 0 0 0 0 0 0 0 0 0 0
0 0 0 0 1 1 0 1 2 3 3 3 3 3 1 0 0 0 0 0 0 0 0 0 0 0 0 0 0 0 0 0 0 0 0 0 0 0 0 0 0 0 0
0 0 0 0 0 0 0 0 1 3 3 3 3 3 2 1 0 0 0 0 0 0 0 0 0 0 0 0 0 0 0 0 0 0 0 0 0 0 0 0 0 0 0
0 0 0 0 0 0 0 0 1 2 3 3 3 3 3 2 1 1 0 0 0 0 0 0 0 0 0 0 0 0 0 0 0 0 0 0 0 0 0 0 0 0 0
0 0 0 0 0 0 0 0 0 1 2 3 3 3 3 3 3 2 1 0 0 0 0 0 0 0 0 0 0 0 0 0 0 0 0 0 0 0 0 0 0 0 0
0 0 0 0 0 0 0 0 0 0 1 2 3 3 3 3 3 3 2 1 0 0 0 0 0 0 0 0 0 0 0 0 0 0 0 0 0 0 0 0 0 0 0
0 0 0 0 0 0 0 0 0 0 0 1 2 3 3 3 3 3 2 1 1 2 1 0 0 0 0 0 0 0 0 0 0 0 0 0 0 0 0 0 0 0 0
0 0 0 0 0 0 0 0 0 0 0 0 1 2 3 3 3 3 2 1 2 3 2 1 0 0 0 0 0 0 0 0 0 0 0 0 0 0 0 0 0 0 0
0 0 0 0 0 0 0 0 0 0 0 0 0 1 3 3 3 3 2 1 1 3 3 2 1 0 0 0 0 0 0 0 0 0 0 0 0 0 0 0 0 0 0
0 0 0 0 0 0 0 0 0 0 0 0 0 1 2 3 2 2 2 1 1 2 3 3 1 0 0 0 0 0 0 0 0 0 0 0 0 0 0 0 0 0 0
0 0 0 0 0 0 0 0 0 0 0 0 0 1 2 2 1 1 1 0 0 1 2 2 2 1 0 0 0 0 0 0 0 0 0 0 0 0 0 0 0 0 0
0 0 0 0 0 0 0 0 0 0 0 0 0 1 2 2 1 0 0 0 0 0 1 1 2 2 1 0 0 0 0 0 0 0 0 0 0 0 0 0 0 0 0
0 0 0 0 0 0 0 0 0 0 0 0 1 2 3 2 1 0 0 0 0 0 0 0 1 1 1 0 0 0 0 0 0 0 0 0 0 0 0 0 0 0 0
0 0 0 0 0 0 0 0 0 0 0 0 1 2 3 2 1 0 0 0 0 0 0 0 0 1 0 0 0 0 0 0 0 0 0 0 0 0 0 0 0 0 0
Wind_Speed
4 6 6 8 9 9 9 9 9 8 8 8 8 8 8 8 9 9 8 8 8 9 10 10 10 11 11 11 11 11 11 11 10 11 11 11 11 11 11 10 9 7 11
5 6 7 8 9 10 9 9 9 8 8 8 8 8 8 8 8 9 9 8 9 9 9 10 10 10 11 11 10 10 10 10 9 9 9 8 9 10 10 10 9 6 10
5 6 7 8 9 10 9 9 8 8 8 8 8 8 7 7 8 8 8 8 8 8 9 9 9 10 10 10 10 10 9 8 7 7 7 4 6 9 10 10 9 9 9
5 6 7 8 9 9 9 9 8 8 8 8 9 8 8 7 7 7 7 7 7 8 9 9 9 9 9 9 9 8 8 7 6 6 4 4 4 8 8 9 9 8 8
5 6 8 9 9 9 9 8 8 8 8 9 9 9 8 8 8 8 7 7 7 7 8 9 8 9 8 8 8 8 7 6 6 5 4 4 4 6 8 8 8 8 8
5 6 7 8 9 9 9 9 8 8 8 9 9 9 9 9 8 8 8 8 7 7 8 8 8 8 8 8 8 7 7 6 5 3 4 4 4 6 7 7 7 7 7
5 6 6 8 8 9 9 9 8 8 8 8 8 9 9 9 9 9 9 8 7 7 7 7 7 7 7 7 7 7 7 6 4 3 4 4 4 6 6 7 7 7 7
5 5 6 7 8 8 8 8 8 8 8 7 7 8 8 9 8 9 9 9 8 8 7 6 7 7 7 6 6 6 7 6 5 4 4 4 5 5 6 6 7 7 7
5 5 4 4 5 7 7 7 8 7 7 7 7 7 8 8 8 8 8 9 9 8 7 7 6 6 5 5 6 6 6 7 5 3 4 4 6 6 6 7 7 7 7
5 4 4 3 4 3 4 6 7 6 6 7 6 6 7 7 7 7 7 7 8 8 7 7 6 5 6 5 6 5 6 5 3 3 3 4 7 6 6 6 6 6 6
4 4 3 3 3 3 3 4 5 5 5 5 4 4 4 2 3 4 5 6 6 6 7 7 6 5 5 5 6 5 4 2 3 3 3 5 6 5 6 5 5 5 5
3 3 3 3 3 2 2 2 2 2 2 2 2 2 1 1 2 3 4 4 4 4 5 6 6 5 4 2 3 4 2 3 3 3 3 5 5 5 4 5 5 4 4
2 3 3 3 2 2 1 1 1 1 1 1 1 1 1 1 1 1 1 1 1 2 2 3 3 2 1 2 2 2 2 2 2 2 3 5 5 5 4 4 4 4 4
2 2 2 3 2 2 1 1 1 1 1 1 1 1 1 1 1 1 1 1 1 1 1 1 1 2 2 2 2 2 2 1 1 1 2 5 5 4 4 4 4 4 3
2 2 2 2 2 2 1 1 1 1 1 1 1 1 2 1 1 1 1 1 1 1 1 1 1 2 2 2 1 1 1 2 1 1 1 4 4 4 4 3 3 3 4
2 2 2 2 2 2 2 1 1 1 1 1 1 1 1 1 1 1 1 1 1 1 1 1 1 1 1 1 2 1 1 1 1 1 1 1 3 4 3 3 3 3 3
2 3 2 2 2 2 2 1 1 1 1 1 1 1 1 1 1 1 0 0 1 1 1 1 1 1 1 1 2 2 1 1 1 1 1 0 1 3 4 3 3 4 4
2 3 2 2 3 2 2 2 1 1 1 1 1 1 1 1 1 0 0 0 0 0 0 1 1 1 1 1 1 2 1 1 1 1 1 1 1 1 2 4 4 4 4
3 3 3 2 2 2 2 2 2 1 2 1 1 1 1 1 1 1 0 0 1 0 0 1 1 0 1 1 1 1 2 1 1 1 0 1 1 1 1 3 4 5 5
3 3 3 2 2 2 2 2 1 2 1 1 1 1 1 1 2 1 0 0 0 0 0 0 0 1 0 1 1 2 2 2 1 0 0 0 0 0 1 1 1 3 5
3 3 3 3 2 2 1 1 1 1 1 1 1 1 1 2 1 1 1 1 0 0 0 0 0 0 0 1 1 2 2 1 1 1 1 0 0 1 0 1 1 1 2
4 3 3 3 2 2 1 1 1 1 1 1 1 1 1 1 1 1 1 0 0 0 0 0 0 0 0 0 0 1 1 2 1 2 1 1 1 0 1 1 0 1 1
4 4 3 3 2 1 1 1 1 1 1 1 1 0 0 1 1 1 1 0 1 0 1 1 1 1 1 1 0 1 1 2 2 1 2 1 1 1 1 1 1 1 1
4 3 3 3 3 2 1 1 2 1 1 1 1 0 0 0 0 0 0 0 0 0 1 1 1 1 1 1 1 1 1 1 1 2 2 1 1 1 1 1 1 1 1
5 4 3 3 3 2 2 2 2 1 1 1 1 1 0 0 0 0 0 0 0 1 1 1 1 1 1 2 1 1 2 2 1 2 3 3 2 2 2 2 2 1 1
4 4 3 3 3 2 2 1 2 2 1 2 1 1 1 1 0 0 0 1 1 1 1 1 2 2 2 2 2 1 1 1 2 2 3 3 3 3 3 2 2 1 1
Wind_Direction
94 109 116 106 108 102 97 94 91 89 87 86 85 81 77 75 73 68 63 61 61 63 63 63 60 58 56 55 56 56 55 54 54 55 55 55 54 52 50 50 51 53 56
100 118 115 103 104 100 95 91 89 86 84 86 85 80 77 75 71 67 63 59 58 60 60 62 62 60 57 58 59 58 56 53 51 51 51 51 55 52 50 49 53 58 55
94 110 108 98 100 96 94 92 90 89 85 85 83 78 75 74 71 68 63 57 56 60 61 62 63 62 60 60 60 59 56 50 41 42 45 47 56 53 51 50 55 57 55
95 107 104 91 93 94 93 92 89 89 86 85 81 77 75 73 70 66 64 58 58 62 66 64 65 64 60 58 60 57 51 39 27 29 47 50 52 52 50 50 51 53 53
91 101 100 93 94 92 88 89 91 88 85 85 81 76 76 74 68 61 58 57 57 64 67 68 67 66 61 57 57 51 40 25 21 16 44 53 52 54 52 52 51 53 53
91 94 103 96 95 92 88 85 84 87 88 86 83 78 73 71 66 60 54 54 56 63 67 68 68 67 63 56 51 44 31 15 12 23 45 48 48 53 55 53 52 52 53
90 88 103 97 95 92 89 88 85 83 88 86 84 81 74 69 64 60 53 50 51 58 66 68 69 66 60 55 45 36 22 7 13 37 46 47 48 53 57 57 55 54 57
92 93 101 91 92 90 88 86 84 81 81 84 83 81 77 71 66 61 56 52 49 52 58 65 68 65 60 52 42 31 18 12 11 35 52 48 47 58 62 60 60 58 59
87 87 94 94 86 84 86 84 81 79 77 77 82 82 77 74 68 64 58 53 48 49 54 58 62 61 60 49 38 28 19 13 7 26 50 53 50 53 59 61 59 57 58
77 81 86 91 93 91 87 85 84 80 78 75 75 77 76 74 70 65 58 54 50 47 50 54 56 62 57 47 36 28 21 13 16 30 42 54 52 48 51 57 55 53 54
73 69 74 79 81 85 97 99 98 91 87 82 71 73 80 82 81 72 64 59 53 48 49 49 47 47 46 44 35 29 20 24 22 41 43 53 53 46 46 51 50 45 47
79 74 69 77 78 84 95 105 116 116 108 89 67 65 71 63 71 75 64 59 52 50 50 46 36 37 33 31 27 24 27 23 22 39 42 47 46 41 41 47 47 45 38
90 69 60 66 78 85 89 100 91 91 95 82 63 55 63 63 75 79 83 64 44 51 43 36 37 34 34 35 37 32 23 19 30 39 42 41 37 32 30 40 39 37 31
106 92 68 56 56 67 78 90 90 87 86 86 56 45 49 47 40 40 47 37 42 50 52 52 40 24 24 31 49 39 13 18 35 40 40 34 28 21 15 22 27 25 17
118 105 83 70 57 55 68 76 78 82 87 85 75 43 42 51 52 44 40 29 29 37 55 52 41 28 24 11 26 28 5 11 32 37 38 30 20 9 6 7 4 4 2
138 120 100 88 77 64 65 72 81 84 90 84 69 59 51 43 48 59 44 25 22 28 33 63 58 42 32 18 2 360 356 355 15 15 36 19 15 11 2 356 351 346 348
134 123 115 114 97 89 75 63 71 79 88 89 78 56 48 49 36 57 70 31 7 6 10 25 41 37 27 24 355 344 342 341 1 358 10 12 11 8 3 352 346 346 338
123 126 115 98 94 81 78 72 58 55 71 82 75 67 47 36 31 43 107 21 342 12 34 43 34 34 5 2 348 335 323 321 336 347 1 22 35 8 4 4 354 345 342
133 120 108 98 95 86 83 84 75 58 59 67 73 62 46 28 18 13 325 344 354 28 36 34 21 31 1 350 331 318 317 309 280 302 329 33 44 34 19 12 5 350 340
124 121 114 104 88 81 81 81 70 60 52 52 70 78 72 45 23 10 343 322 348 36 41 31 24 11 338 317 310 302 285 277 281 314 283 51 31 32 23 357 348 344 348
136 135 135 125 114 110 109 112 108 91 65 54 53 67 70 57 31 30 348 308 330 296 20 34 99 37 341 6 336 310 296 264 224 262 258 274 334 323 354 344 330 333 332
153 151 147 140 134 132 128 141 146 141 152 132 81 58 57 58 32 25 27 340 325 283 261 243 228 264 249 71 350 315 308 308 274 241 227 220 255 308 341 338 320 320 328
167 164 159 148 141 137 126 118 89 78 75 63 70 85 58 59 44 27 28 0 315 265 232 226 224 247 231 244 179 153 219 265 309 279 237 228 235 275 282 273 279 291 305
166 157 154 153 153 154 152 153 163 161 167 213 197 182 114 104 108 30 24 12 285 273 247 236 246 251 218 232 246 250 239 222 255 299 287 247 241 252 266 290 280 267 262
155 153 152 153 157 156 167 187 196 201 185 157 152 161 167 179 194 86 348 291 270 271 264 253 253 257 240 233 227 250 268 278 241 239 277 286 290 261 250 262 260 261 262
149 150 156 163 165 160 173 205 219 211 195 170 172 188 210 214 229 266 282 259 257 254 254 257 248 249 252 253 245 230 229 238 250 248 264 278 278 274 270 256 242 261 288